Wenatchee, WA
on Wednesday, January 30, 2013

Wednesday
Previous Day Next Day
Daily Summary
 ActualAverageRecord
Temperature
Mean Temperature °F / °C 29°F / -2°C  
Max Temperature 53°F / 12°C 35°F / 2°C 58°F / 14°C (1989)
Min Temperature 34°F / 1°C 23°F / -5°C -12°F / -24°C (1996)
Degree Days
Heating Degree Days 21 36  
Month to date heating degree days 1161 1124  
Since 1 July heating degree days 3328 4222  
Cooling Degree Days 0 0  
Month to date cooling degree days 0 0  
Year to date cooling degree days 0 0  
Moisture
Dew Point 30°F / -1°C   
Average Humidity 58    
Maximum Humidity 75    
Minimum Humidity 41    
Precipitation
Precipitation 0.00 in / 0.00 cm 0.04 in / 1.02 cm 0.28 in / 0.71 cm (1995)
Month to date precipitation 0.19 1.82  
Year to date precipitation 0.19 1.82  
Snow
Snow 0.00 in / 0.00 cm 0.30 in / 0.76 cm in / cm ()
Month to date snowfall 15.1  
Since 1 July snowfall 40.0  
Snow Depth in / cm   
Wind
Wind Speed 13 mph / 22 km/h   
Max Wind Speed 31 mph / 50 km/h   
Max Gust Speed 38 mph / 61 km/h   
Visibility 10 miles / 16 kilometers   
Events     

Key: T is trace of precipitation, MM is missing value
Source: NWS Daily Summary
Time(PST)TemperatureDew PointHumidity Pressure Visibility Wind DirectionWind SpeedGust SpeedPrecipitationEvents Conditions
12:55 AM 36.0°F / 2.2°C 27.0°F / -2.8°C 70% 30.15 in / 1020.9 hPa 10.0 miles / 16.1 kilometers Calm Calm - N/A   Clear
1:55 AM 37.9°F / 3.3°C 28.0°F / -2.2°C 68% 30.15 in / 1021.0 hPa 10.0 miles / 16.1 kilometers SW 4.6 mph / 7.4 km/h - N/A   Clear
2:29 AM 42.8°F / 6.0°C 28.4°F / -2.0°C 57% 30.13 in / 1020.2 hPa 10.0 miles / 16.1 kilometers WNW 19.6 mph / 31.5 km/h - N/A   Clear
2:55 AM 44.1°F / 6.7°C 30.0°F / -1.1°C 58% 30.15 in / 1021.0 hPa 10.0 miles / 16.1 kilometers WNW 19.6 mph / 31.5 km/h - N/A   Clear
5:55 AM 44.1°F / 6.7°C 30.0°F / -1.1°C 58% 30.13 in / 1020.2 hPa 10.0 miles / 16.1 kilometers WNW 28.8 mph / 46.3 km/h - N/A   Clear
6:55 AM 44.1°F / 6.7°C 30.0°F / -1.1°C 58% 30.13 in / 1020.3 hPa 10.0 miles / 16.1 kilometers WNW 24.2 mph / 38.9 km/h - N/A   Clear
7:55 AM 43.0°F / 6.1°C 30.9°F / -0.6°C 62% 30.15 in / 1020.8 hPa 10.0 miles / 16.1 kilometers WNW 20.7 mph / 33.3 km/h - N/A   Clear
8:55 AM 45.0°F / 7.2°C 30.9°F / -0.6°C 58% 30.14 in / 1020.6 hPa 10.0 miles / 16.1 kilometers WNW 20.7 mph / 33.3 km/h - N/A   Clear
9:55 AM 46.9°F / 8.3°C 30.9°F / -0.6°C 54% 30.16 in / 1021.1 hPa 10.0 miles / 16.1 kilometers WNW 20.7 mph / 33.3 km/h - N/A   Clear
10:55 AM 46.9°F / 8.3°C 30.9°F / -0.6°C 54% 30.17 in / 1021.7 hPa 10.0 miles / 16.1 kilometers WNW 17.3 mph / 27.8 km/h - N/A   Clear
11:55 AM 48.0°F / 8.9°C 30.9°F / -0.6°C 52% 30.17 in / 1021.6 hPa 10.0 miles / 16.1 kilometers WNW 8.1 mph / 13.0 km/h - N/A   Clear
12:55 PM 51.1°F / 10.6°C 30.9°F / -0.6°C 46% 30.17 in / 1021.5 hPa 10.0 miles / 16.1 kilometers Calm Calm - N/A   Clear
1:55 PM 50.0°F / 10.0°C 32.0°F / 0.0°C 50% 30.17 in / 1021.4 hPa 10.0 miles / 16.1 kilometers SE 10.4 mph / 16.7 km/h - N/A   Clear
2:55 PM 51.1°F / 10.6°C 32.0°F / 0.0°C 48% 30.17 in / 1021.5 hPa 10.0 miles / 16.1 kilometers Calm Calm - N/A   Clear
3:55 PM 51.1°F / 10.6°C 32.0°F / 0.0°C 48% 30.19 in / 1022.2 hPa 10.0 miles / 16.1 kilometers Calm Calm - N/A   Clear
4:55 PM 51.1°F / 10.6°C 28.9°F / -1.7°C 43% 30.19 in / 1022.3 hPa 10.0 miles / 16.1 kilometers SW 8.1 mph / 13.0 km/h - N/A   Clear
5:55 PM 48.0°F / 8.9°C 28.9°F / -1.7°C 48% 30.22 in / 1023.1 hPa 10.0 miles / 16.1 kilometers West 8.1 mph / 13.0 km/h - N/A   Clear
6:55 PM 45.0°F / 7.2°C 28.9°F / -1.7°C 53% 30.23 in / 1023.5 hPa 10.0 miles / 16.1 kilometers NW 10.4 mph / 16.7 km/h - N/A   Clear
8:55 PM 44.1°F / 6.7°C 30.0°F / -1.1°C 58% 30.24 in / 1023.8 hPa 10.0 miles / 16.1 kilometers NW 11.5 mph / 18.5 km/h - N/A   Clear
9:55 PM 45.0°F / 7.2°C 30.0°F / -1.1°C 56% 30.24 in / 1023.8 hPa 10.0 miles / 16.1 kilometers NW 13.8 mph / 22.2 km/h - N/A   Scattered Clouds
10:55 PM 42.1°F / 5.6°C 30.0°F / -1.1°C 62% 30.24 in / 1024.0 hPa 10.0 miles / 16.1 kilometers WNW 11.5 mph / 18.5 km/h - N/A   Scattered Clouds
11:55 PM 43.0°F / 6.1°C 30.0°F / -1.1°C 60% 30.23 in / 1023.6 hPa 10.0 miles / 16.1 kilometers NW 15.0 mph / 24.1 km/h - N/A   Clear
Moon Phase
Jan. 30 Feb. 03 Feb. 10 Feb. 17 Feb. 25
Sunrise:07:28 AM (PST) Moon Rise:09:25 PM (PST)1/30
Sunset:05:00 PM (PST) Moon Set:08:40 AM (PST)1/30

Copyright © 2014 The Weather Underground, Inc.